Regional Weather Roundup
Issued by NWS Sterling, VA

Home | Current Version | Previous Version | Graphics & Text | Print | Product List | Glossary On
Versions: 1 2 3 4 5 6 7 8 9 10 11 12 13 14 15 16 17 18 19 20 21 22 23 24 25 26 27 28 29 30 31 32 33 34 35 36 37 38 39 40 41 42 43 44 45 46 47 48 49 50
000
ASUS41 KLWX 190910
RWRLWX

REGIONAL WEATHER ROUNDUP
NATIONAL WEATHER SERVICE BALTIMORE MD/WASHINGTON DC
400 AM EST FRI DEC 19 2014

Note: "FAIR" indicates few or no clouds below 12,000 feet
with no significant weather and/or obstructions to visibility.
 TC=TEMPERATURE CELSIUS

 * =Non NWS site. Station does not report precipitation (e.g. rain,
    snow, etc.), thunder, or fog.

DCZ001-MDZ009-015-VAZ040>042-051-053>054-191000-
WASHINGTON METRO

CITY           SKY/WX    TMP DP  RH WIND       PRES   REMARKS
WASHINGTON NAT CLOUDY    38  21  50 NW9       30.13F
DULLES         CLOUDY    32  22  66 NW8       30.12S WCI  25
ANDREWS AFB    CLOUDY    34  23  64 NW12      30.10F WCI  25
FT BELVOIR     CLOUDY    35  22  59 NW7       30.13F
QUANTICO       MOCLDY    35  22  58 N7        30.13F
COLLEGE PARK*  CLOUDY    36  25  64 W5        30.12S
LEESBURG*      CLOUDY    34  27  75 NW8       30.12F WCI  27
MANASSAS*      CLOUDY    34  25  69 NW8       30.13S WCI  27
GAITHERSBURG*  CLOUDY    32  21  64 NW9       30.13S WCI  24

$$

MDZ006>007-011-014-191000-
BALTIMORE METRO

CITY           SKY/WX    TMP DP  RH WIND       PRES   REMARKS
BWI AIRPORT    CLOUDY    34  23  64 W8        30.10S WCI  27
MD SCIENCE CTR   N/A     35  23  61 MISG      30.10S
MARTIN STATE   CLOUDY    36  27  69 W9        30.11S WCI  29
ANNAPOLIS      CLOUDY    35  23  61 W8        30.10F WCI  29
FORT MEADE*    CLOUDY    34  25  69 W6        30.13S

$$

MDZ012-015-019>023-191000-
MARYLAND EASTERN SHORE

CITY           SKY/WX    TMP DP  RH WIND       PRES   REMARKS
OCEAN CITY     CLOUDY    35  26  69 NW6       30.07F
SALISBURY      CLOUDY    38  25  59 NW9       30.08F
BAY BRIDGE AP*   N/A     36  25  64 W9        30.10F WCI  29
CAMBRIDGE*     CLOUDY    37  27  65 NW8       30.09F
EASTON*        CLOUDY    37  27  69 NW9       30.13S

$$

MDZ017>025-191000-
SOUTHERN MARYLAND

CITY           SKY/WX    TMP DP  RH WIND       PRES   REMARKS
PATUXENT RIVER CLOUDY    36  23  59 NW14G21   30.10F WCI  27
ST INIGOES     CLOUDY    35  22  58 NW5       30.10F
LEONARDTOWN*   CLOUDY    34  23  64 NW3       30.11F

$$

MDZ003>005-191000-
NORTH CENTRAL MARYLAND

CITY           SKY/WX    TMP DP  RH WIND       PRES   REMARKS
FREDERICK*     CLOUDY    34  23  64 NW5       30.14S
HAGERSTOWN APT CLOUDY    33  22  63 NW14      30.09S WCI  23
WESTMINSTER*   CLOUDY    32  25  74 NW7       30.06F

$$

MDZ501>502-191000-
WESTERN MARYLAND

CITY           SKY/WX    TMP DP  RH WIND       PRES   REMARKS
OAKLAND*       CLOUDY    21 N/A N/A W9        30.03R HAZE    WCI  11
CUMBERLAND*    CLOUDY    32  21  64 W7G17     30.17F

$$

VAZ025>031-191000-
SHENANDOAH VALLEY

CITY           SKY/WX    TMP DP  RH WIND       PRES   REMARKS
WINCHESTER*    CLOUDY    34  19  55 NW6       30.11S
FRONT ROYAL*   CLOUDY    32  25  74 CALM      30.10F
LURAY*         PTSUNNY   32  28  86 CALM      30.10S
NEW MARKET*    FAIR      27  22  82 CALM      30.10S
STAUNTON*      CLEAR     29  23  81 CALM      30.10S
WAYNESBORO*    PTSUNNY   29  23  76 CALM      30.07S

$$

WVZ021-048>050-054>055-191000-
EASTERN WEST VIRGINIA PANHANDLE

CITY           SKY/WX    TMP DP  RH WIND       PRES   REMARKS
MARTINSBURG    CLOUDY    34  19  54 NW8       30.11F WCI  27
PETERSBURG*    MOCLDY    30  22  73 CALM      30.13S

$$

VAZ036>039-050-191000-
CENTRAL FOOTHILLS

CITY           SKY/WX    TMP DP  RH WIND       PRES   REMARKS
CHARLOTTESVILL PTCLDY    30  24  78 CALM      30.10S
CULPEPER*      PTCLDY    30  25  80 CALM      30.12S
ORANGE*        CLOUDY    32  28  86 CALM      30.12S
GORDONSVILLE*  CLOUDY    31  25  78 CALM      30.11S
WARRENTON*     MOCLDY    32  28  86 N3        30.11F

$$

VAZ055>057-191000-
NORTH AND CENTRAL PIEDMONT

CITY           SKY/WX    TMP DP  RH WIND       PRES   REMARKS
FREDERICKSBRG* MOCLDY    36  25  64 N3        30.12S
STAFFORD*      PTCLDY    32  22  65 N3        30.15F

$$

NCZ024-NYZ072-PAZ021-071-VAZ022-071-191000-
OTHER REGIONAL OBSERVATIONS

CITY           SKY/WX    TMP DP  RH WIND       PRES   REMARKS
NEW YORK CITY  CLEAR     36  23  59 NW7G16    29.99S
PHILADELPHIA   CLOUDY    37  25  61 W9        30.05S
PITTSBURGH     CLOUDY    27  24  89 W9        30.14S WCI  18
ROANOKE        CLEAR     35  19  52 NW10      30.14S WCI  27
RICHMOND       CLOUDY    35  24  64 CALM      30.11F
RALEIGH        MOCLDY    41  29  62 CALM      30.11S

$$

ANZ530>537-191000-
MARINE OBSERVATIONS

STATION/POSITION TIME  TEMP    WIND        PRES
                       AIR SEA DIR/SP/G
                 (UTC) (F)     (DEG/KT/KT) (MB)
THOMAS PT LIGHT  0900   35 41  290/ 14/ 16 1020.4F
BALT KEY BRIDGE  0900   36     270/ 12/ 13 1019.0F
COVE POINT       0900   35     340/ 15/ 16 1019.1F
LEWISETTA        0900   36 43  330/  6/  8 1019.1F
SOLOMONS ISLAND  0900      44                N/A
PINEY POINT      0900          340/ 13/ 16   N/A

$$




USA.gov is the U.S. government's official web portal to all federal, state and local government web resources and services.